TimeBST,TemperatureF,Dew PointF,Humidity,Sea Level PressureIn,VisibilityMPH,Wind Direction,Wind SpeedMPH,Gust SpeedMPH,PrecipitationIn,Events,Conditions,WindDirDegrees,DateUTC
12:00 AM,47,45,89,29.80,4,SSE,6.9,,,,Light Haze,150,2014-04-25 23:00:00
12:20 AM,46.4,44.6,93,29.80,3.7,South,6.9,-,N/A,,Unknown,170,2014-04-25 23:20:00
12:50 AM,46.4,44.6,93,29.77,3.7,South,5.8,-,N/A,,Unknown,170,2014-04-25 23:50:00
1:00 AM,46,45,93,29.79,3,SSE,6.9,,,,Light Haze,160,2014-04-26 00:00:00
1:20 AM,46.4,44.6,93,29.77,-9999.0,SSE,8.1,-,N/A,,Mist,150,2014-04-26 00:20:00
1:50 AM,46.4,46.4,100,29.77,-9999.0,SE,8.1,-,N/A,,Haze,140,2014-04-26 00:50:00
2:00 AM,47,45,92,29.76,3,SE,9.2,,,,Mist,140,2014-04-26 01:00:00
2:20 AM,46.4,44.6,93,29.74,1.7,SE,9.2,-,N/A,,Haze,130,2014-04-26 01:20:00
2:50 AM,48.2,46.4,93,29.74,3.7,SSE,10.4,-,N/A,,Unknown,150,2014-04-26 01:50:00
3:00 AM,48,47,93,29.74,3,SE,11.5,,,,Mist,140,2014-04-26 02:00:00
3:20 AM,48.2,46.4,93,29.71,3.7,SSE,10.4,-,N/A,,Unknown,160,2014-04-26 02:20:00
3:50 AM,50.0,46.4,87,29.71,-9999.0,SSE,10.4,-,N/A,,Clear,150,2014-04-26 02:50:00
4:00 AM,49,46,87,29.72,10,SE,11.5,,,,Mostly Cloudy,140,2014-04-26 03:00:00
4:20 AM,50.0,46.4,87,29.71,-9999.0,SE,10.4,-,N/A,,Clear,140,2014-04-26 03:20:00
4:50 AM,50.0,46.4,87,29.68,-9999.0,SSE,10.4,-,N/A,,Clear,150,2014-04-26 03:50:00
5:00 AM,49,45,83,29.70,17,SSE,11.5,,,,Mostly Cloudy,150,2014-04-26 04:00:00
5:20 AM,50.0,46.4,87,29.68,6.2,SSE,13.8,-,N/A,Rain,Light Rain,160,2014-04-26 04:20:00
5:50 AM,50.0,46.4,87,29.68,6.2,SSE,13.8,-,N/A,Rain,Light Rain,160,2014-04-26 04:50:00
6:00 AM,49,46,86,29.68,7,SSE,15.0,,,Rain,Light Rain,150,2014-04-26 05:00:00
6:20 AM,50.0,46.4,87,29.65,5.6,SSE,15.0,-,N/A,Rain,Light Rain,160,2014-04-26 05:20:00
6:50 AM,50.0,48.2,94,29.65,6.2,SSE,13.8,-,N/A,,Drizzle,160,2014-04-26 05:50:00
7:00 AM,49,47,91,29.68,7,SSE,13.8,,,Rain,Light Rain Showers,150,2014-04-26 06:00:00
7:20 AM,50.0,48.2,94,29.65,6.2,South,12.7,-,N/A,Rain,Light Rain,170,2014-04-26 06:20:00
7:50 AM,50.0,48.2,94,29.65,6.2,South,12.7,-,N/A,Rain,Light Rain,170,2014-04-26 06:50:00
8:00 AM,51,48,87,29.68,31,SSE,12.7,,,Rain,Rain,160,2014-04-26 07:00:00
8:20 AM,51.8,48.2,88,29.65,6.2,South,13.8,-,N/A,,Scattered Clouds,180,2014-04-26 07:20:00
8:50 AM,53.6,48.2,82,29.65,6.2,South,13.8,-,N/A,,Scattered Clouds,180,2014-04-26 07:50:00
9:00 AM,53,49,82,29.68,25,South,13.8,,,,Scattered Clouds,170,2014-04-26 08:00:00
9:20 AM,53.6,48.2,82,29.68,6.2,South,11.5,-,N/A,,Scattered Clouds,180,2014-04-26 08:20:00
9:50 AM,55.4,48.2,77,29.68,6.2,South,15.0,-,N/A,,Scattered Clouds,180,2014-04-26 08:50:00
10:00 AM,56,50,73,29.68,19,South,13.8,,,,Scattered Clouds,170,2014-04-26 09:00:00
10:20 AM,55.4,46.4,72,29.68,6.2,South,15.0,28.8,N/A,,Scattered Clouds,180,2014-04-26 09:20:00
10:50 AM,55.4,46.4,72,29.68,6.2,South,17.3,-,N/A,,Mostly Cloudy,170,2014-04-26 09:50:00
11:00 AM,56,44,55,29.68,19,South,15.0,,,,Scattered Clouds,170,2014-04-26 10:00:00
11:20 AM,55.4,46.4,72,29.68,6.2,South,16.1,28.8,N/A,,Scattered Clouds,180,2014-04-26 10:20:00
11:50 AM,57.2,42.8,59,29.65,6.2,South,17.3,-,N/A,,Scattered Clouds,180,2014-04-26 10:50:00
12:00 PM,56,43,50,29.68,19,South,15.0,,,Rain,Light Rain Showers,180,2014-04-26 11:00:00
12:20 PM,57.2,46.4,67,29.65,6.2,South,15.0,31.1,N/A,Rain,Light Rain Showers,190,2014-04-26 11:20:00
12:50 PM,57.2,44.6,63,29.65,6.2,South,17.3,28.8,N/A,,Mostly Cloudy,180,2014-04-26 11:50:00
1:00 PM,58,44,48,29.67,22,South,17.3,,,Rain,Rain,180,2014-04-26 12:00:00
1:20 PM,59.0,42.8,55,29.65,6.2,South,18.4,-,N/A,,Scattered Clouds,180,2014-04-26 12:20:00
1:50 PM,59.0,44.6,59,29.65,6.2,South,19.6,32.2,N/A,,Scattered Clouds,190,2014-04-26 12:50:00
2:00 PM,60,44,45,29.66,28,South,19.6,,,Rain,Rain,180,2014-04-26 13:00:00
2:20 PM,59.0,42.8,55,29.65,6.2,SSW,16.1,-,N/A,Rain,Rain Showers,200,2014-04-26 13:20:00
2:50 PM,59.0,42.8,55,29.65,6.2,South,17.3,-,N/A,,Scattered Clouds,190,2014-04-26 13:50:00
3:00 PM,59,43,43,29.65,22,South,17.3,,,Rain,Rain,190,2014-04-26 14:00:00
3:20 PM,60.8,41.0,48,29.65,6.2,South,20.7,-,N/A,,Scattered Clouds,190,2014-04-26 14:20:00
3:50 PM,59.0,41.0,51,29.62,6.2,South,18.4,-,N/A,,Scattered Clouds,170,2014-04-26 14:50:00
4:00 PM,59,41,40,29.64,22,South,16.1,,,,Scattered Clouds,170,2014-04-26 15:00:00
4:20 PM,59.0,42.8,55,29.62,6.2,SSE,15.0,-,N/A,,Scattered Clouds,150,2014-04-26 15:20:00
4:50 PM,57.2,44.6,63,29.65,6.2,South,18.4,-,N/A,,Scattered Clouds,170,2014-04-26 15:50:00
5:00 PM,56,48,67,29.65,19,South,19.6,,,Rain,Rain Showers,180,2014-04-26 16:00:00
5:20 PM,57.2,42.8,59,29.62,6.2,South,15.0,-,N/A,,Scattered Clouds,170,2014-04-26 16:20:00
5:50 PM,57.2,42.8,59,29.62,6.2,South,18.4,-,N/A,,Scattered Clouds,180,2014-04-26 16:50:00
6:00 PM,57,42,47,29.64,28,South,18.4,,,Rain,Rain,170,2014-04-26 17:00:00
6:20 PM,55.4,44.6,67,29.62,6.2,SSE,13.8,-,N/A,,Partly Cloudy,150,2014-04-26 17:20:00
6:50 PM,55.4,41.0,58,29.62,6.2,SSE,12.7,-,N/A,,Partly Cloudy,160,2014-04-26 17:50:00
7:00 PM,55,41,48,29.64,34,SSE,15.0,,,,Scattered Clouds,160,2014-04-26 18:00:00
7:20 PM,55.4,41.0,58,29.62,6.2,South,13.8,-,N/A,,Partly Cloudy,170,2014-04-26 18:20:00
7:50 PM,53.6,41.0,62,29.62,6.2,SSE,12.7,-,N/A,,Partly Cloudy,160,2014-04-26 18:50:00
8:00 PM,54,40,47,29.64,34,SSE,12.7,,,,Partly Cloudy,150,2014-04-26 19:00:00
8:20 PM,53.6,41.0,62,29.62,6.2,SE,10.4,-,N/A,,Partly Cloudy,140,2014-04-26 19:20:00
8:50 PM,51.8,41.0,67,29.62,-9999.0,SSE,11.5,-,N/A,,Clear,150,2014-04-26 19:50:00
9:00 PM,52,40,54,29.64,25,SE,11.5,,,,Scattered Clouds,140,2014-04-26 20:00:00
9:20 PM,51.8,42.8,71,29.62,-9999.0,SE,11.5,-,N/A,,Clear,130,2014-04-26 20:20:00
9:50 PM,51.8,42.8,71,29.62,-9999.0,SE,10.4,-,N/A,,Clear,130,2014-04-26 20:50:00
10:00 PM,50,42,64,29.63,19,SE,13.8,,,,,130,2014-04-26 21:00:00
10:20 PM,50.0,42.8,76,29.62,6.2,SE,11.5,-,N/A,,Partly Cloudy,130,2014-04-26 21:20:00
10:50 PM,50.0,41.0,71,29.62,6.2,SE,11.5,-,N/A,,Partly Cloudy,130,2014-04-26 21:50:00
11:00 PM,50,41,62,29.62,25,SE,11.5,,,,Partly Cloudy,130,2014-04-26 22:00:00
11:20 PM,50.0,41.0,71,29.62,-9999.0,SE,12.7,-,N/A,,Clear,130,2014-04-26 22:20:00
11:50 PM,50.0,41.0,71,29.62,-9999.0,ESE,11.5,-,N/A,,Clear,120,2014-04-26 22:50:00